Time,TemperatureF,DewpointF,PressureIn,WindDirection,WindDirectionDegrees,WindSpeedMPH,WindSpeedGustMPH,Humidity,HourlyPrecipIn,Conditions,Clouds,dailyrainin,SoftwareType,DateUTC
2013-01-16 00:03:00,36.0,28.0,30.23,North,8,0.0,157.0,71,0.00,,,0.11,,2013-01-16 05:03:00,
2013-01-16 00:12:00,36.0,28.0,30.23,North,8,0.0,157.0,71,0.00,,,0.11,,2013-01-16 05:12:00,
2013-01-16 00:22:00,35.0,27.0,30.22,North,7,0.0,0.0,73,0.00,,,0.11,,2013-01-16 05:22:00,
2013-01-16 00:32:00,35.0,29.0,30.23,North,8,0.0,5.0,77,0.00,,,0.11,,2013-01-16 05:32:00,
2013-01-16 00:42:00,35.0,29.0,30.23,North,8,0.0,5.0,77,0.00,,,0.11,,2013-01-16 05:42:00,
2013-01-16 00:53:00,34.0,31.0,30.22,North,4,2.0,10.0,87,0.00,,,0.11,,2013-01-16 05:53:00,
2013-01-16 01:02:00,33.0,31.0,30.22,North,0,3.0,11.0,93,0.00,,,0.10,,2013-01-16 06:02:00,
2013-01-16 01:12:00,33.0,31.0,30.22,North,0,3.0,11.0,93,0.00,,,0.10,,2013-01-16 06:12:00,
2013-01-16 01:22:00,33.0,32.0,30.22,North,8,3.0,11.0,98,0.00,,,0.10,,2013-01-16 06:22:00,
2013-01-16 01:32:00,32.0,32.0,30.22,North,8,1.0,11.0,100,0.00,,,0.09,,2013-01-16 06:32:00,
2013-01-16 01:43:00,32.0,32.0,30.22,North,8,1.0,11.0,100,0.00,,,0.09,,2013-01-16 06:43:00,
2013-01-16 01:53:00,32.0,32.0,30.19,NNE,14,1.0,11.0,100,0.00,,,0.07,,2013-01-16 06:53:00,
2013-01-16 02:02:00,32.0,32.0,30.19,NNE,17,0.0,11.0,100,0.00,,,0.06,,2013-01-16 07:02:00,
2013-01-16 02:12:00,32.0,32.0,30.19,NNE,17,0.0,11.0,100,0.00,,,0.06,,2013-01-16 07:12:00,
2013-01-16 02:22:00,32.0,32.0,30.18,ENE,78,1.0,17.0,100,0.00,,,0.05,,2013-01-16 07:22:00,
2013-01-16 02:33:00,32.0,32.0,30.18,NNE,16,2.0,121.0,100,0.00,,,0.05,,2013-01-16 07:33:00,
2013-01-16 02:42:00,32.0,32.0,30.18,NNE,16,2.0,121.0,100,0.00,,,0.05,,2013-01-16 07:42:00,
2013-01-16 02:52:00,32.0,32.0,30.18,NNE,31,3.0,121.0,100,0.00,,,0.04,,2013-01-16 07:52:00,
2013-01-16 03:02:00,33.0,33.0,30.18,NNE,15,0.0,121.0,100,0.00,,,0.03,,2013-01-16 08:02:00,
2013-01-16 03:12:00,33.0,33.0,30.18,NNE,15,0.0,121.0,100,0.00,,,0.03,,2013-01-16 08:12:00,
2013-01-16 03:22:00,33.0,33.0,30.16,NNE,17,2.0,121.0,100,0.00,,,0.01,,2013-01-16 08:22:00,
2013-01-16 03:32:00,33.0,33.0,30.16,North,10,3.0,121.0,100,0.01,,,0.02,,2013-01-16 08:32:00,
2013-01-16 03:42:00,33.0,33.0,30.16,North,10,3.0,121.0,100,0.01,,,0.02,,2013-01-16 08:42:00,
2013-01-16 03:53:00,33.0,33.0,30.14,NNE,31,1.0,121.0,100,0.02,,,0.03,,2013-01-16 08:53:00,
2013-01-16 04:02:00,33.0,33.0,30.13,NNE,25,2.0,155.0,100,0.03,,,0.03,,2013-01-16 09:02:00,
2013-01-16 04:12:00,33.0,33.0,30.13,NNE,25,2.0,155.0,100,0.03,,,0.03,,2013-01-16 09:12:00,
2013-01-16 04:22:00,33.0,33.0,30.12,NNE,23,3.0,155.0,100,0.03,,,0.03,,2013-01-16 09:22:00,
2013-01-16 04:32:00,33.0,33.0,30.12,NNE,28,2.0,155.0,100,0.04,,,0.05,,2013-01-16 09:32:00,
2013-01-16 04:42:00,33.0,33.0,30.12,NNE,28,2.0,155.0,100,0.04,,,0.05,,2013-01-16 09:42:00,
2013-01-16 04:53:00,33.0,33.0,30.11,North,0,2.0,155.0,100,0.03,,,0.05,,2013-01-16 09:53:00,
2013-01-16 05:02:00,33.0,33.0,30.10,North,10,1.0,155.0,100,0.02,,,0.05,,2013-01-16 10:02:00,
2013-01-16 05:12:00,33.0,33.0,30.10,North,10,1.0,155.0,100,0.02,,,0.05,,2013-01-16 10:12:00,
2013-01-16 05:22:00,33.0,33.0,30.11,North,7,1.0,155.0,100,0.02,,,0.05,,2013-01-16 10:22:00,
2013-01-16 05:32:00,33.0,33.0,30.11,North,7,1.0,155.0,100,0.01,,,0.06,,2013-01-16 10:32:00,
2013-01-16 05:42:00,33.0,33.0,30.11,North,7,1.0,155.0,100,0.01,,,0.06,,2013-01-16 10:42:00,
2013-01-16 05:53:00,33.0,33.0,30.09,NNE,25,0.0,155.0,100,0.01,,,0.06,,2013-01-16 10:53:00,
2013-01-16 06:02:00,33.0,33.0,30.09,NNE,25,0.0,155.0,100,0.01,,,0.06,,2013-01-16 11:02:00,
2013-01-16 06:12:00,33.0,33.0,30.09,NNE,25,0.0,155.0,100,0.01,,,0.06,,2013-01-16 11:12:00,
2013-01-16 06:23:00,33.0,33.0,30.08,NE,34,0.0,155.0,100,0.01,,,0.06,,2013-01-16 11:23:00,
2013-01-16 06:33:00,33.0,33.0,30.07,NNE,32,1.0,155.0,100,0.00,,,0.06,,2013-01-16 11:33:00,
2013-01-16 06:42:00,33.0,33.0,30.07,NNE,32,1.0,155.0,100,0.00,,,0.06,,2013-01-16 11:42:00,
2013-01-16 06:53:00,33.0,33.0,30.07,NNE,32,3.0,155.0,100,0.00,,,0.06,,2013-01-16 11:53:00,
2013-01-16 07:03:00,33.0,33.0,30.07,NNE,33,0.0,155.0,100,0.00,,,0.06,,2013-01-16 12:03:00,
2013-01-16 07:13:00,33.0,33.0,30.07,NNE,33,0.0,155.0,100,0.00,,,0.06,,2013-01-16 12:13:00,
2013-01-16 07:22:00,33.0,33.0,30.06,NNE,32,0.0,155.0,100,0.01,,,0.07,,2013-01-16 12:22:00,
2013-01-16 07:33:00,33.0,33.0,30.07,NE,34,0.0,155.0,100,0.01,,,0.07,,2013-01-16 12:33:00,
2013-01-16 07:43:00,33.0,33.0,30.07,NE,34,0.0,155.0,100,0.01,,,0.07,,2013-01-16 12:43:00,
2013-01-16 07:53:00,33.0,33.0,30.06,NNE,33,0.0,155.0,100,0.01,,,0.07,,2013-01-16 12:53:00,
2013-01-16 08:03:00,33.0,33.0,30.06,NNE,33,0.0,155.0,100,0.01,,,0.07,,2013-01-16 13:03:00,
2013-01-16 08:12:00,33.0,33.0,30.06,NNE,33,0.0,155.0,100,0.01,,,0.07,,2013-01-16 13:12:00,
2013-01-16 08:23:00,34.0,34.0,30.04,NNE,33,0.0,155.0,100,0.01,,,0.08,,2013-01-16 13:23:00,
2013-01-16 08:33:00,34.0,34.0,30.04,NNE,32,0.0,155.0,100,0.01,,,0.08,,2013-01-16 13:33:00,
2013-01-16 08:43:00,34.0,34.0,30.04,NNE,32,0.0,155.0,100,0.01,,,0.08,,2013-01-16 13:43:00,
2013-01-16 08:53:00,34.0,34.0,30.03,NNE,33,0.0,155.0,100,0.02,,,0.09,,2013-01-16 13:53:00,
2013-01-16 09:03:00,34.0,34.0,30.02,NE,34,0.0,155.0,100,0.02,,,0.09,,2013-01-16 14:03:00,
2013-01-16 09:12:00,34.0,34.0,30.02,NE,34,0.0,155.0,100,0.02,,,0.09,,2013-01-16 14:12:00,
2013-01-16 09:23:00,34.0,34.0,29.97,NE,42,0.0,155.0,100,0.01,,,0.09,,2013-01-16 14:23:00,
2013-01-16 09:33:00,34.0,34.0,29.99,NE,47,0.0,155.0,100,0.01,,,0.09,,2013-01-16 14:33:00,
2013-01-16 09:43:00,34.0,34.0,29.99,NE,47,0.0,155.0,100,0.01,,,0.09,,2013-01-16 14:43:00,
2013-01-16 09:53:00,34.0,34.0,29.97,NE,47,0.0,155.0,100,0.01,,,0.10,,2013-01-16 14:53:00,
2013-01-16 10:03:00,34.0,34.0,29.94,NE,48,0.0,155.0,100,0.01,,,0.10,,2013-01-16 15:03:00,
2013-01-16 10:12:00,34.0,34.0,29.94,NE,48,0.0,155.0,100,0.01,,,0.10,,2013-01-16 15:12:00,
2013-01-16 10:23:00,34.0,34.0,29.96,NE,49,0.0,155.0,100,0.02,,,0.11,,2013-01-16 15:23:00,
2013-01-16 10:33:00,34.0,34.0,29.97,NE,48,0.0,155.0,100,0.02,,,0.11,,2013-01-16 15:33:00,
2013-01-16 10:43:00,34.0,34.0,29.97,NE,48,0.0,155.0,100,0.02,,,0.11,,2013-01-16 15:43:00,
2013-01-16 10:53:00,35.0,35.0,29.98,NE,48,0.0,155.0,100,0.02,,,0.12,,2013-01-16 15:53:00,
2013-01-16 11:03:00,35.0,35.0,29.97,NE,48,0.0,155.0,100,0.02,,,0.12,,2013-01-16 16:03:00,
2013-01-16 11:12:00,35.0,35.0,29.97,NE,48,0.0,155.0,100,0.02,,,0.12,,2013-01-16 16:12:00,
2013-01-16 11:23:00,35.0,35.0,29.97,NE,48,0.0,155.0,100,0.01,,,0.12,,2013-01-16 16:23:00,
2013-01-16 11:33:00,35.0,35.0,29.97,NE,48,0.0,155.0,100,0.02,,,0.13,,2013-01-16 16:33:00,
2013-01-16 11:43:00,35.0,35.0,29.97,NE,48,0.0,155.0,100,0.02,,,0.13,,2013-01-16 16:43:00,
2013-01-16 11:53:00,35.0,35.0,29.95,NE,47,0.0,155.0,100,0.01,,,0.13,,2013-01-16 16:53:00,
2013-01-16 12:03:00,35.0,35.0,29.95,NE,48,0.0,155.0,100,0.02,,,0.14,,2013-01-16 17:03:00,
2013-01-16 12:12:00,35.0,35.0,29.95,NE,48,0.0,155.0,100,0.02,,,0.14,,2013-01-16 17:12:00,
2013-01-16 12:23:00,35.0,35.0,29.93,NE,48,0.0,155.0,100,0.02,,,0.15,,2013-01-16 17:23:00,
2013-01-16 12:33:00,35.0,35.0,29.94,NE,48,0.0,155.0,100,0.02,,,0.15,,2013-01-16 17:33:00,
2013-01-16 12:43:00,35.0,35.0,29.94,NE,48,0.0,155.0,100,0.02,,,0.15,,2013-01-16 17:43:00,
2013-01-16 12:53:00,35.0,35.0,29.89,NE,48,1.0,155.0,100,0.03,,,0.16,,2013-01-16 17:53:00,
2013-01-16 13:03:00,35.0,35.0,29.88,NE,48,0.0,155.0,100,0.02,,,0.16,,2013-01-16 18:03:00,
2013-01-16 13:13:00,35.0,35.0,29.87,NNE,23,0.0,155.0,100,0.02,,,0.17,,2013-01-16 18:13:00,
2013-01-16 13:23:00,35.0,35.0,29.87,NNE,23,0.0,155.0,100,0.02,,,0.17,,2013-01-16 18:23:00,
2013-01-16 13:33:00,35.0,35.0,29.81,NNE,27,1.0,155.0,100,0.02,,,0.17,,2013-01-16 18:33:00,
2013-01-16 13:42:00,35.0,35.0,29.81,NNE,27,1.0,155.0,100,0.02,,,0.17,,2013-01-16 18:42:00,
2013-01-16 13:53:00,35.0,35.0,29.80,NNE,28,0.0,155.0,100,0.01,,,0.17,,2013-01-16 18:53:00,
2013-01-16 14:03:00,35.0,35.0,29.85,NNW,337,3.0,155.0,100,0.01,,,0.17,,2013-01-16 19:03:00,
2013-01-16 14:12:00,35.0,35.0,29.85,NNW,337,3.0,155.0,100,0.01,,,0.17,,2013-01-16 19:12:00,
2013-01-16 14:23:00,35.0,35.0,29.85,NNW,333,2.0,155.0,100,0.01,,,0.18,,2013-01-16 19:23:00,
2013-01-16 14:33:00,35.0,35.0,29.86,NNW,336,0.0,155.0,100,0.01,,,0.18,,2013-01-16 19:33:00,
2013-01-16 14:43:00,35.0,35.0,29.86,NNW,336,0.0,155.0,100,0.01,,,0.18,,2013-01-16 19:43:00,
2013-01-16 14:53:00,35.0,35.0,29.90,North,0,2.0,155.0,100,0.02,,,0.19,,2013-01-16 19:53:00,
2013-01-16 15:03:00,35.0,35.0,29.89,NNW,344,3.0,155.0,100,0.02,,,0.19,,2013-01-16 20:03:00,
2013-01-16 15:12:00,35.0,35.0,29.89,NNW,344,3.0,155.0,100,0.02,,,0.19,,2013-01-16 20:12:00,
2013-01-16 15:23:00,35.0,35.0,29.88,NW,323,0.0,155.0,100,0.01,,,0.19,,2013-01-16 20:23:00,
2013-01-16 15:33:00,35.0,35.0,29.87,NW,326,0.0,155.0,100,0.01,,,0.19,,2013-01-16 20:33:00,
2013-01-16 15:43:00,35.0,35.0,29.87,NW,326,0.0,155.0,100,0.01,,,0.19,,2013-01-16 20:43:00,
2013-01-16 15:53:00,35.0,35.0,29.88,NW,325,0.0,155.0,100,0.01,,,0.20,,2013-01-16 20:53:00,
2013-01-16 16:03:00,35.0,35.0,29.87,NW,325,0.0,155.0,100,0.01,,,0.20,,2013-01-16 21:03:00,
2013-01-16 16:12:00,35.0,35.0,29.87,NW,325,0.0,155.0,100,0.01,,,0.20,,2013-01-16 21:12:00,
2013-01-16 16:22:00,36.0,36.0,29.89,NW,325,0.0,155.0,100,0.01,,,0.20,,2013-01-16 21:22:00,
2013-01-16 16:33:00,35.0,35.0,29.88,NW,326,0.0,155.0,100,0.01,,,0.20,,2013-01-16 21:33:00,
2013-01-16 16:43:00,35.0,35.0,29.88,NW,326,0.0,155.0,100,0.01,,,0.20,,2013-01-16 21:43:00,
2013-01-16 16:53:00,35.0,35.0,29.89,NW,326,0.0,155.0,100,0.01,,,0.21,,2013-01-16 21:53:00,
2013-01-16 17:03:00,35.0,35.0,29.89,NW,326,0.0,155.0,100,0.01,,,0.21,,2013-01-16 22:03:00,
2013-01-16 17:12:00,35.0,35.0,29.89,NW,326,0.0,155.0,100,0.01,,,0.21,,2013-01-16 22:12:00,
2013-01-16 17:23:00,35.0,35.0,29.90,NW,325,0.0,155.0,100,0.01,,,0.21,,2013-01-16 22:23:00,
2013-01-16 17:33:00,35.0,35.0,29.88,NW,326,0.0,155.0,100,0.01,,,0.21,,2013-01-16 22:33:00,
2013-01-16 17:43:00,35.0,35.0,29.88,NW,326,0.0,155.0,100,0.01,,,0.21,,2013-01-16 22:43:00,
2013-01-16 17:53:00,35.0,35.0,29.90,NW,325,0.0,155.0,100,0.00,,,0.21,,2013-01-16 22:53:00,
2013-01-16 18:03:00,35.0,35.0,29.90,NW,326,1.0,155.0,100,0.01,,,0.22,,2013-01-16 23:03:00,
2013-01-16 18:12:00,35.0,35.0,29.90,NW,325,0.0,155.0,100,0.01,,,0.22,,2013-01-16 23:12:00,
2013-01-16 18:23:00,35.0,35.0,29.90,NW,325,0.0,155.0,100,0.01,,,0.22,,2013-01-16 23:23:00,
2013-01-16 18:32:00,35.0,35.0,29.89,NW,325,0.0,155.0,100,0.01,,,0.22,,2013-01-16 23:32:00,
2013-01-16 18:42:00,35.0,35.0,29.89,NW,325,0.0,155.0,100,0.01,,,0.22,,2013-01-16 23:42:00,
2013-01-16 18:53:00,36.0,36.0,29.89,NW,325,0.0,155.0,100,0.01,,,0.22,,2013-01-16 23:53:00,
2013-01-16 19:02:00,36.0,36.0,29.88,NW,325,0.0,155.0,100,0.00,,,0.22,,2013-01-17 00:02:00,
2013-01-16 19:12:00,36.0,36.0,29.88,NW,325,0.0,155.0,100,0.00,,,0.22,,2013-01-17 00:12:00,
2013-01-16 19:22:00,36.0,36.0,29.88,NW,325,0.0,155.0,100,0.01,,,0.23,,2013-01-17 00:22:00,
2013-01-16 19:32:00,36.0,36.0,29.89,NW,326,0.0,155.0,100,0.01,,,0.23,,2013-01-17 00:32:00,
2013-01-16 19:42:00,36.0,36.0,29.89,NW,326,0.0,155.0,100,0.01,,,0.23,,2013-01-17 00:42:00,
2013-01-16 19:52:00,36.0,36.0,29.89,NW,325,0.0,155.0,100,0.01,,,0.23,,2013-01-17 00:52:00,
2013-01-16 20:02:00,36.0,36.0,29.89,NW,325,1.0,155.0,100,0.01,,,0.23,,2013-01-17 01:02:00,
2013-01-16 20:12:00,36.0,36.0,29.89,NW,325,1.0,155.0,100,0.01,,,0.23,,2013-01-17 01:12:00,
2013-01-16 20:22:00,36.0,36.0,29.90,NW,323,0.0,155.0,100,0.00,,,0.23,,2013-01-17 01:22:00,
2013-01-16 20:33:00,37.0,37.0,29.90,NW,325,1.0,155.0,100,0.01,,,0.24,,2013-01-17 01:33:00,
2013-01-16 20:42:00,37.0,37.0,29.90,NW,325,1.0,155.0,100,0.01,,,0.24,,2013-01-17 01:42:00,
2013-01-16 20:52:00,37.0,37.0,29.89,NW,323,0.0,155.0,100,0.01,,,0.24,,2013-01-17 01:52:00,
2013-01-16 21:02:00,37.0,37.0,29.90,NW,325,0.0,155.0,100,0.01,,,0.24,,2013-01-17 02:02:00,
2013-01-16 21:12:00,37.0,37.0,29.90,NW,325,0.0,155.0,100,0.01,,,0.24,,2013-01-17 02:12:00,
2013-01-16 21:22:00,37.0,37.0,29.90,NW,323,1.0,155.0,100,0.02,,,0.25,,2013-01-17 02:22:00,
2013-01-16 21:32:00,37.0,37.0,29.90,NW,322,1.0,155.0,100,0.01,,,0.25,,2013-01-17 02:32:00,
2013-01-16 21:42:00,37.0,37.0,29.90,NW,322,1.0,155.0,100,0.01,,,0.25,,2013-01-17 02:42:00,
2013-01-16 21:52:00,37.0,37.0,29.90,NW,322,1.0,155.0,100,0.01,,,0.25,,2013-01-17 02:52:00,
2013-01-16 22:03:00,37.0,37.0,29.90,NW,315,0.0,155.0,100,0.01,,,0.25,,2013-01-17 03:03:00,
2013-01-16 22:12:00,37.0,37.0,29.90,NW,315,0.0,155.0,100,0.01,,,0.25,,2013-01-17 03:12:00,
2013-01-16 22:22:00,37.0,37.0,29.89,NW,313,0.0,155.0,100,0.00,,,0.25,,2013-01-17 03:22:00,
2013-01-16 22:32:00,37.0,37.0,29.89,NW,314,0.0,155.0,100,0.00,,,0.25,,2013-01-17 03:32:00,
2013-01-16 22:42:00,37.0,37.0,29.89,NW,314,0.0,155.0,100,0.00,,,0.25,,2013-01-17 03:42:00,
2013-01-16 22:53:00,36.0,36.0,29.88,NW,313,0.0,155.0,100,0.00,,,0.25,,2013-01-17 03:53:00,
2013-01-16 23:02:00,36.0,36.0,29.89,NW,313,0.0,155.0,100,0.00,,,0.25,,2013-01-17 04:02:00,
2013-01-16 23:12:00,36.0,36.0,29.90,NW,313,0.0,155.0,100,0.01,,,0.26,,2013-01-17 04:12:00,
2013-01-16 23:22:00,36.0,36.0,29.90,NW,313,0.0,155.0,100,0.01,,,0.26,,2013-01-17 04:22:00,
2013-01-16 23:32:00,36.0,36.0,29.90,NW,313,0.0,155.0,100,0.01,,,0.26,,2013-01-17 04:32:00,
2013-01-16 23:42:00,36.0,36.0,29.90,NW,313,0.0,155.0,100,0.01,,,0.26,,2013-01-17 04:42:00,
2013-01-16 23:52:00,36.0,36.0,29.90,NW,313,0.0,155.0,100,0.01,,,0.26,,2013-01-17 04:52:00,